Index of /20260414/WXO-DD/model_gdps/15km/12/153
Name Last modified Size Description
Parent Directory -
20260414T12Z_MSC_GDPS_AirTemp_AGL-120m_LatLon0.15_PT153H.grib2 2026-04-14 16:38 910K
20260414T12Z_MSC_GDPS_AirTemp_AGL-2m_LatLon0.15_PT153H.grib2 2026-04-14 16:38 1.0M
20260414T12Z_MSC_GDPS_AirTemp_AGL-40m_LatLon0.15_PT153H.grib2 2026-04-14 16:38 817K
20260414T12Z_MSC_GDPS_AirTemp_AGL-80m_LatLon0.15_PT153H.grib2 2026-04-14 16:38 921K
20260414T12Z_MSC_GDPS_AirTemp_IsbL-0001_LatLon0.15_PT153H.grib2 2026-04-14 16:38 707K
20260414T12Z_MSC_GDPS_AirTemp_IsbL-0005_LatLon0.15_PT153H.grib2 2026-04-14 16:38 691K
20260414T12Z_MSC_GDPS_AirTemp_IsbL-0010_LatLon0.15_PT153H.grib2 2026-04-14 16:38 760K
20260414T12Z_MSC_GDPS_AirTemp_IsbL-0020_LatLon0.15_PT153H.grib2 2026-04-14 16:38 702K
20260414T12Z_MSC_GDPS_AirTemp_IsbL-0030_LatLon0.15_PT153H.grib2 2026-04-14 16:38 757K
20260414T12Z_MSC_GDPS_AirTemp_IsbL-0050_LatLon0.15_PT153H.grib2 2026-04-14 16:38 819K
20260414T12Z_MSC_GDPS_AirTemp_IsbL-0100_LatLon0.15_PT153H.grib2 2026-04-14 16:38 968K
20260414T12Z_MSC_GDPS_AirTemp_IsbL-0150_LatLon0.15_PT153H.grib2 2026-04-14 16:38 1.0M
20260414T12Z_MSC_GDPS_AirTemp_IsbL-0175_LatLon0.15_PT153H.grib2 2026-04-14 16:38 1.0M
20260414T12Z_MSC_GDPS_AirTemp_IsbL-0200_LatLon0.15_PT153H.grib2 2026-04-14 16:38 1.0M
20260414T12Z_MSC_GDPS_AirTemp_IsbL-0225_LatLon0.15_PT153H.grib2 2026-04-14 16:38 1.0M
20260414T12Z_MSC_GDPS_AirTemp_IsbL-0250_LatLon0.15_PT153H.grib2 2026-04-14 16:38 1.0M
20260414T12Z_MSC_GDPS_AirTemp_IsbL-0275_LatLon0.15_PT153H.grib2 2026-04-14 16:38 1.0M
20260414T12Z_MSC_GDPS_AirTemp_IsbL-0300_LatLon0.15_PT153H.grib2 2026-04-14 16:38 950K
20260414T12Z_MSC_GDPS_AirTemp_IsbL-0350_LatLon0.15_PT153H.grib2 2026-04-14 16:38 930K
20260414T12Z_MSC_GDPS_AirTemp_IsbL-0400_LatLon0.15_PT153H.grib2 2026-04-14 16:38 941K
20260414T12Z_MSC_GDPS_AirTemp_IsbL-0450_LatLon0.15_PT153H.grib2 2026-04-14 16:38 964K
20260414T12Z_MSC_GDPS_AirTemp_IsbL-0500_LatLon0.15_PT153H.grib2 2026-04-14 16:38 1.0M
20260414T12Z_MSC_GDPS_AirTemp_IsbL-0550_LatLon0.15_PT153H.grib2 2026-04-14 16:38 805K
20260414T12Z_MSC_GDPS_AirTemp_IsbL-0600_LatLon0.15_PT153H.grib2 2026-04-14 16:38 898K
20260414T12Z_MSC_GDPS_AirTemp_IsbL-0650_LatLon0.15_PT153H.grib2 2026-04-14 16:38 925K
20260414T12Z_MSC_GDPS_AirTemp_IsbL-0700_LatLon0.15_PT153H.grib2 2026-04-14 16:38 959K
20260414T12Z_MSC_GDPS_AirTemp_IsbL-0750_LatLon0.15_PT153H.grib2 2026-04-14 16:38 1.0M
20260414T12Z_MSC_GDPS_AirTemp_IsbL-0800_LatLon0.15_PT153H.grib2 2026-04-14 16:38 1.1M
20260414T12Z_MSC_GDPS_AirTemp_IsbL-0850_LatLon0.15_PT153H.grib2 2026-04-14 16:38 1.1M
20260414T12Z_MSC_GDPS_AirTemp_IsbL-0875_LatLon0.15_PT153H.grib2 2026-04-14 16:38 1.2M
20260414T12Z_MSC_GDPS_AirTemp_IsbL-0900_LatLon0.15_PT153H.grib2 2026-04-14 16:38 1.1M
20260414T12Z_MSC_GDPS_AirTemp_IsbL-0925_LatLon0.15_PT153H.grib2 2026-04-14 16:38 1.1M
20260414T12Z_MSC_GDPS_AirTemp_IsbL-0950_LatLon0.15_PT153H.grib2 2026-04-14 16:38 1.1M
20260414T12Z_MSC_GDPS_AirTemp_IsbL-0970_LatLon0.15_PT153H.grib2 2026-04-14 16:38 1.1M
20260414T12Z_MSC_GDPS_AirTemp_IsbL-0985_LatLon0.15_PT153H.grib2 2026-04-14 16:38 1.1M
20260414T12Z_MSC_GDPS_AirTemp_IsbL-1000_LatLon0.15_PT153H.grib2 2026-04-14 16:38 1.1M
20260414T12Z_MSC_GDPS_AirTemp_IsbL-1015_LatLon0.15_PT153H.grib2 2026-04-14 16:38 1.1M
20260414T12Z_MSC_GDPS_Albedo_Sfc_LatLon0.15_PT153H.grib2 2026-04-14 16:38 245K
20260414T12Z_MSC_GDPS_CAPE_Sfc_LatLon0.15_PT153H.grib2 2026-04-14 16:38 3.6M
20260414T12Z_MSC_GDPS_CIN_Sfc_LatLon0.15_PT153H.grib2 2026-04-14 16:38 2.9M
20260414T12Z_MSC_GDPS_ConvectivePrecip-Accum_Sfc_LatLon0.15_PT153H.grib2 2026-04-14 16:38 3.7M
20260414T12Z_MSC_GDPS_DewPointDepression_AGL-2m_LatLon0.15_PT153H.grib2 2026-04-14 16:38 752K
20260414T12Z_MSC_GDPS_DewPointDepression_IsbL-0010_LatLon0.15_PT153H.grib2 2026-04-14 16:38 21K
20260414T12Z_MSC_GDPS_DewPointDepression_IsbL-0020_LatLon0.15_PT153H.grib2 2026-04-14 16:38 58K
20260414T12Z_MSC_GDPS_DewPointDepression_IsbL-0030_LatLon0.15_PT153H.grib2 2026-04-14 16:38 70K
20260414T12Z_MSC_GDPS_DewPointDepression_IsbL-0050_LatLon0.15_PT153H.grib2 2026-04-14 16:38 323K
20260414T12Z_MSC_GDPS_DewPointDepression_IsbL-0100_LatLon0.15_PT153H.grib2 2026-04-14 16:38 382K
20260414T12Z_MSC_GDPS_DewPointDepression_IsbL-0150_LatLon0.15_PT153H.grib2 2026-04-14 16:38 469K
20260414T12Z_MSC_GDPS_DewPointDepression_IsbL-0175_LatLon0.15_PT153H.grib2 2026-04-14 16:38 539K
20260414T12Z_MSC_GDPS_DewPointDepression_IsbL-0200_LatLon0.15_PT153H.grib2 2026-04-14 16:38 635K
20260414T12Z_MSC_GDPS_DewPointDepression_IsbL-0225_LatLon0.15_PT153H.grib2 2026-04-14 16:38 760K
20260414T12Z_MSC_GDPS_DewPointDepression_IsbL-0250_LatLon0.15_PT153H.grib2 2026-04-14 16:38 854K
20260414T12Z_MSC_GDPS_DewPointDepression_IsbL-0275_LatLon0.15_PT153H.grib2 2026-04-14 16:38 877K
20260414T12Z_MSC_GDPS_DewPointDepression_IsbL-0300_LatLon0.15_PT153H.grib2 2026-04-14 16:38 925K
20260414T12Z_MSC_GDPS_DewPointDepression_IsbL-0350_LatLon0.15_PT153H.grib2 2026-04-14 16:38 961K
20260414T12Z_MSC_GDPS_DewPointDepression_IsbL-0400_LatLon0.15_PT153H.grib2 2026-04-14 16:38 1.0M
20260414T12Z_MSC_GDPS_DewPointDepression_IsbL-0450_LatLon0.15_PT153H.grib2 2026-04-14 16:38 1.0M
20260414T12Z_MSC_GDPS_DewPointDepression_IsbL-0500_LatLon0.15_PT153H.grib2 2026-04-14 16:38 1.0M
20260414T12Z_MSC_GDPS_DewPointDepression_IsbL-0550_LatLon0.15_PT153H.grib2 2026-04-14 16:38 1.0M
20260414T12Z_MSC_GDPS_DewPointDepression_IsbL-0600_LatLon0.15_PT153H.grib2 2026-04-14 16:38 1.1M
20260414T12Z_MSC_GDPS_DewPointDepression_IsbL-0650_LatLon0.15_PT153H.grib2 2026-04-14 16:38 1.1M
20260414T12Z_MSC_GDPS_DewPointDepression_IsbL-0700_LatLon0.15_PT153H.grib2 2026-04-14 16:38 1.1M
20260414T12Z_MSC_GDPS_DewPointDepression_IsbL-0750_LatLon0.15_PT153H.grib2 2026-04-14 16:38 1.1M
20260414T12Z_MSC_GDPS_DewPointDepression_IsbL-0800_LatLon0.15_PT153H.grib2 2026-04-14 16:38 1.2M
20260414T12Z_MSC_GDPS_DewPointDepression_IsbL-0850_LatLon0.15_PT153H.grib2 2026-04-14 16:38 1.1M
20260414T12Z_MSC_GDPS_DewPointDepression_IsbL-0875_LatLon0.15_PT153H.grib2 2026-04-14 16:38 1.1M
20260414T12Z_MSC_GDPS_DewPointDepression_IsbL-0900_LatLon0.15_PT153H.grib2 2026-04-14 16:38 1.1M
20260414T12Z_MSC_GDPS_DewPointDepression_IsbL-0925_LatLon0.15_PT153H.grib2 2026-04-14 16:38 1.0M
20260414T12Z_MSC_GDPS_DewPointDepression_IsbL-0950_LatLon0.15_PT153H.grib2 2026-04-14 16:38 1.0M
20260414T12Z_MSC_GDPS_DewPointDepression_IsbL-0970_LatLon0.15_PT153H.grib2 2026-04-14 16:38 1.0M
20260414T12Z_MSC_GDPS_DewPointDepression_IsbL-0985_LatLon0.15_PT153H.grib2 2026-04-14 16:38 1.0M
20260414T12Z_MSC_GDPS_DewPointDepression_IsbL-1000_LatLon0.15_PT153H.grib2 2026-04-14 16:38 1.0M
20260414T12Z_MSC_GDPS_DewPointDepression_IsbL-1015_LatLon0.15_PT153H.grib2 2026-04-14 16:38 908K
20260414T12Z_MSC_GDPS_DewPoint_AGL-2m_LatLon0.15_PT153H.grib2 2026-04-14 16:38 612K
20260414T12Z_MSC_GDPS_DownwardLongwaveRadiationFlux-Accum_Sfc_LatLon0.15_PT153H.grib2 2026-04-14 16:38 851K
20260414T12Z_MSC_GDPS_DownwardShortwaveRadiationFlux-Accum_Sfc_LatLon0.15_PT153H.grib2 2026-04-14 16:38 1.1M
20260414T12Z_MSC_GDPS_FreezingRain-Accum3h_Sfc_LatLon0.15_PT153H.grib2 2026-04-14 16:38 58K
20260414T12Z_MSC_GDPS_FreezingRain-Accum_Sfc_LatLon0.15_PT153H.grib2 2026-04-14 16:38 332K
20260414T12Z_MSC_GDPS_GeopotentialHeight_IsbL-0001_LatLon0.15_PT153H.grib2 2026-04-14 16:38 399K
20260414T12Z_MSC_GDPS_GeopotentialHeight_IsbL-0005_LatLon0.15_PT153H.grib2 2026-04-14 16:38 497K
20260414T12Z_MSC_GDPS_GeopotentialHeight_IsbL-0010_LatLon0.15_PT153H.grib2 2026-04-14 16:38 427K
20260414T12Z_MSC_GDPS_GeopotentialHeight_IsbL-0020_LatLon0.15_PT153H.grib2 2026-04-14 16:38 574K
20260414T12Z_MSC_GDPS_GeopotentialHeight_IsbL-0030_LatLon0.15_PT153H.grib2 2026-04-14 16:38 584K
20260414T12Z_MSC_GDPS_GeopotentialHeight_IsbL-0050_LatLon0.15_PT153H.grib2 2026-04-14 16:38 587K
20260414T12Z_MSC_GDPS_GeopotentialHeight_IsbL-0100_LatLon0.15_PT153H.grib2 2026-04-14 16:38 625K
20260414T12Z_MSC_GDPS_GeopotentialHeight_IsbL-0150_LatLon0.15_PT153H.grib2 2026-04-14 16:38 642K
20260414T12Z_MSC_GDPS_GeopotentialHeight_IsbL-0175_LatLon0.15_PT153H.grib2 2026-04-14 16:38 645K
20260414T12Z_MSC_GDPS_GeopotentialHeight_IsbL-0200_LatLon0.15_PT153H.grib2 2026-04-14 16:38 648K
20260414T12Z_MSC_GDPS_GeopotentialHeight_IsbL-0225_LatLon0.15_PT153H.grib2 2026-04-14 16:38 642K
20260414T12Z_MSC_GDPS_GeopotentialHeight_IsbL-0250_LatLon0.15_PT153H.grib2 2026-04-14 16:38 650K
20260414T12Z_MSC_GDPS_GeopotentialHeight_IsbL-0275_LatLon0.15_PT153H.grib2 2026-04-14 16:38 647K
20260414T12Z_MSC_GDPS_GeopotentialHeight_IsbL-0300_LatLon0.15_PT153H.grib2 2026-04-14 16:38 638K
20260414T12Z_MSC_GDPS_GeopotentialHeight_IsbL-0350_LatLon0.15_PT153H.grib2 2026-04-14 16:38 636K
20260414T12Z_MSC_GDPS_GeopotentialHeight_IsbL-0400_LatLon0.15_PT153H.grib2 2026-04-14 16:38 627K
20260414T12Z_MSC_GDPS_GeopotentialHeight_IsbL-0450_LatLon0.15_PT153H.grib2 2026-04-14 16:38 546K
20260414T12Z_MSC_GDPS_GeopotentialHeight_IsbL-0500_LatLon0.15_PT153H.grib2 2026-04-14 16:38 535K
20260414T12Z_MSC_GDPS_GeopotentialHeight_IsbL-0550_LatLon0.15_PT153H.grib2 2026-04-14 16:38 699K
20260414T12Z_MSC_GDPS_GeopotentialHeight_IsbL-0600_LatLon0.15_PT153H.grib2 2026-04-14 16:38 690K
20260414T12Z_MSC_GDPS_GeopotentialHeight_IsbL-0650_LatLon0.15_PT153H.grib2 2026-04-14 16:38 689K
20260414T12Z_MSC_GDPS_GeopotentialHeight_IsbL-0700_LatLon0.15_PT153H.grib2 2026-04-14 16:38 684K
20260414T12Z_MSC_GDPS_GeopotentialHeight_IsbL-0750_LatLon0.15_PT153H.grib2 2026-04-14 16:38 694K
20260414T12Z_MSC_GDPS_GeopotentialHeight_IsbL-0800_LatLon0.15_PT153H.grib2 2026-04-14 16:38 703K
20260414T12Z_MSC_GDPS_GeopotentialHeight_IsbL-0850_LatLon0.15_PT153H.grib2 2026-04-14 16:38 715K
20260414T12Z_MSC_GDPS_GeopotentialHeight_IsbL-0875_LatLon0.15_PT153H.grib2 2026-04-14 16:38 721K
20260414T12Z_MSC_GDPS_GeopotentialHeight_IsbL-0900_LatLon0.15_PT153H.grib2 2026-04-14 16:38 727K
20260414T12Z_MSC_GDPS_GeopotentialHeight_IsbL-0925_LatLon0.15_PT153H.grib2 2026-04-14 16:38 731K
20260414T12Z_MSC_GDPS_GeopotentialHeight_IsbL-0950_LatLon0.15_PT153H.grib2 2026-04-14 16:38 740K
20260414T12Z_MSC_GDPS_GeopotentialHeight_IsbL-0970_LatLon0.15_PT153H.grib2 2026-04-14 16:38 751K
20260414T12Z_MSC_GDPS_GeopotentialHeight_IsbL-0985_LatLon0.15_PT153H.grib2 2026-04-14 16:38 767K
20260414T12Z_MSC_GDPS_GeopotentialHeight_IsbL-1000_LatLon0.15_PT153H.grib2 2026-04-14 16:38 788K
20260414T12Z_MSC_GDPS_GeopotentialHeight_IsbL-1015_LatLon0.15_PT153H.grib2 2026-04-14 16:38 811K
20260414T12Z_MSC_GDPS_Humidex_Sfc_LatLon0.15_PT153H.grib2 2026-04-14 16:38 5.3M
20260414T12Z_MSC_GDPS_IcePellets-Accum3h_Sfc_LatLon0.15_PT153H.grib2 2026-04-14 16:38 13K
20260414T12Z_MSC_GDPS_IcePellets-Accum_Sfc_LatLon0.15_PT153H.grib2 2026-04-14 16:38 210K
20260414T12Z_MSC_GDPS_KIndex_Sfc_LatLon0.15_PT153H.grib2 2026-04-14 16:38 6.5M
20260414T12Z_MSC_GDPS_LatentHeatNetFlux_Sfc_LatLon0.15_PT153H.grib2 2026-04-14 16:38 488K
20260414T12Z_MSC_GDPS_LiftedIndex-MU-VT_IsbL-0500_LatLon0.15_PT153H.grib2 2026-04-14 16:38 5.4M
20260414T12Z_MSC_GDPS_NetLongwaveRadiationFlux-Accum_Sfc_LatLon0.15_PT153H.grib2 2026-04-14 16:38 1.1M
20260414T12Z_MSC_GDPS_NetShortwaveRadiationFlux-Accum_Sfc_LatLon0.15_PT153H.grib2 2026-04-14 16:38 1.1M
20260414T12Z_MSC_GDPS_O3MixingRatio_LatLon0.15_PT153H.grib2 2026-04-14 16:56 1.9M
20260414T12Z_MSC_GDPS_O3_EAtm_LatLon0.15_PT153H.grib2 2026-04-14 16:56 2.1M
20260414T12Z_MSC_GDPS_PlanetaryBoundaryLayerHeight_Sfc_LatLon0.15_PT153H.grib2 2026-04-14 16:38 2.4M
20260414T12Z_MSC_GDPS_Precip-Accum3h_Sfc_LatLon0.15_PT153H.grib2 2026-04-14 16:38 3.5M
20260414T12Z_MSC_GDPS_Precip-Accum_Sfc_LatLon0.15_PT153H.grib2 2026-04-14 16:38 5.2M
20260414T12Z_MSC_GDPS_PrecipRate_Sfc_LatLon0.15_PT153H.grib2 2026-04-14 16:38 3.0M
20260414T12Z_MSC_GDPS_PrecipType-Instant_Sfc_LatLon0.15_PT153H.grib2 2026-04-14 16:38 1.5M
20260414T12Z_MSC_GDPS_Pressure_MSL_LatLon0.15_PT153H.grib2 2026-04-14 16:38 723K
20260414T12Z_MSC_GDPS_Pressure_PVU-1.5_LatLon0.15_PT153H.grib2 2026-04-14 16:38 5.8M
20260414T12Z_MSC_GDPS_Pressure_PVU-1_LatLon0.15_PT153H.grib2 2026-04-14 16:38 6.0M
20260414T12Z_MSC_GDPS_Pressure_PVU-2_LatLon0.15_PT153H.grib2 2026-04-14 16:38 5.6M
20260414T12Z_MSC_GDPS_Pressure_Sfc_LatLon0.15_PT153H.grib2 2026-04-14 16:38 1.1M
20260414T12Z_MSC_GDPS_RadiativeTemp_Sfc_LatLon0.15_PT153H.grib2 2026-04-14 16:38 664K
20260414T12Z_MSC_GDPS_Rain-Accum3h_Sfc_LatLon0.15_PT153H.grib2 2026-04-14 16:38 1.7M
20260414T12Z_MSC_GDPS_Rain-Accum_Sfc_LatLon0.15_PT153H.grib2 2026-04-14 16:38 4.0M
20260414T12Z_MSC_GDPS_RelativeHumidity_AGL-2m_LatLon0.15_PT153H.grib2 2026-04-14 16:38 1.0M
20260414T12Z_MSC_GDPS_RelativeHumidity_IsbL-0010_LatLon0.15_PT153H.grib2 2026-04-14 16:38 226K
20260414T12Z_MSC_GDPS_RelativeHumidity_IsbL-0020_LatLon0.15_PT153H.grib2 2026-04-14 16:38 361K
20260414T12Z_MSC_GDPS_RelativeHumidity_IsbL-0030_LatLon0.15_PT153H.grib2 2026-04-14 16:38 416K
20260414T12Z_MSC_GDPS_RelativeHumidity_IsbL-0050_LatLon0.15_PT153H.grib2 2026-04-14 16:38 409K
20260414T12Z_MSC_GDPS_RelativeHumidity_IsbL-0100_LatLon0.15_PT153H.grib2 2026-04-14 16:38 489K
20260414T12Z_MSC_GDPS_RelativeHumidity_IsbL-0150_LatLon0.15_PT153H.grib2 2026-04-14 16:38 655K
20260414T12Z_MSC_GDPS_RelativeHumidity_IsbL-0175_LatLon0.15_PT153H.grib2 2026-04-14 16:38 597K
20260414T12Z_MSC_GDPS_RelativeHumidity_IsbL-0200_LatLon0.15_PT153H.grib2 2026-04-14 16:38 695K
20260414T12Z_MSC_GDPS_RelativeHumidity_IsbL-0225_LatLon0.15_PT153H.grib2 2026-04-14 16:38 787K
20260414T12Z_MSC_GDPS_RelativeHumidity_IsbL-0250_LatLon0.15_PT153H.grib2 2026-04-14 16:38 872K
20260414T12Z_MSC_GDPS_RelativeHumidity_IsbL-0275_LatLon0.15_PT153H.grib2 2026-04-14 16:38 894K
20260414T12Z_MSC_GDPS_RelativeHumidity_IsbL-0300_LatLon0.15_PT153H.grib2 2026-04-14 16:38 940K
20260414T12Z_MSC_GDPS_RelativeHumidity_IsbL-0350_LatLon0.15_PT153H.grib2 2026-04-14 16:38 963K
20260414T12Z_MSC_GDPS_RelativeHumidity_IsbL-0400_LatLon0.15_PT153H.grib2 2026-04-14 16:38 1.0M
20260414T12Z_MSC_GDPS_RelativeHumidity_IsbL-0450_LatLon0.15_PT153H.grib2 2026-04-14 16:38 1.0M
20260414T12Z_MSC_GDPS_RelativeHumidity_IsbL-0500_LatLon0.15_PT153H.grib2 2026-04-14 16:38 1.0M
20260414T12Z_MSC_GDPS_RelativeHumidity_IsbL-0550_LatLon0.15_PT153H.grib2 2026-04-14 16:38 1.0M
20260414T12Z_MSC_GDPS_RelativeHumidity_IsbL-0600_LatLon0.15_PT153H.grib2 2026-04-14 16:38 1.1M
20260414T12Z_MSC_GDPS_RelativeHumidity_IsbL-0650_LatLon0.15_PT153H.grib2 2026-04-14 16:38 1.1M
20260414T12Z_MSC_GDPS_RelativeHumidity_IsbL-0700_LatLon0.15_PT153H.grib2 2026-04-14 16:38 1.1M
20260414T12Z_MSC_GDPS_RelativeHumidity_IsbL-0750_LatLon0.15_PT153H.grib2 2026-04-14 16:38 1.2M
20260414T12Z_MSC_GDPS_RelativeHumidity_IsbL-0800_LatLon0.15_PT153H.grib2 2026-04-14 16:38 1.3M
20260414T12Z_MSC_GDPS_RelativeHumidity_IsbL-0850_LatLon0.15_PT153H.grib2 2026-04-14 16:38 1.3M
20260414T12Z_MSC_GDPS_RelativeHumidity_IsbL-0875_LatLon0.15_PT153H.grib2 2026-04-14 16:38 1.2M
20260414T12Z_MSC_GDPS_RelativeHumidity_IsbL-0900_LatLon0.15_PT153H.grib2 2026-04-14 16:38 1.2M
20260414T12Z_MSC_GDPS_RelativeHumidity_IsbL-0925_LatLon0.15_PT153H.grib2 2026-04-14 16:38 1.2M
20260414T12Z_MSC_GDPS_RelativeHumidity_IsbL-0950_LatLon0.15_PT153H.grib2 2026-04-14 16:38 1.2M
20260414T12Z_MSC_GDPS_RelativeHumidity_IsbL-0970_LatLon0.15_PT153H.grib2 2026-04-14 16:38 1.2M
20260414T12Z_MSC_GDPS_RelativeHumidity_IsbL-0985_LatLon0.15_PT153H.grib2 2026-04-14 16:38 1.1M
20260414T12Z_MSC_GDPS_RelativeHumidity_IsbL-1000_LatLon0.15_PT153H.grib2 2026-04-14 16:38 1.1M
20260414T12Z_MSC_GDPS_RelativeHumidity_IsbL-1015_LatLon0.15_PT153H.grib2 2026-04-14 16:38 1.0M
20260414T12Z_MSC_GDPS_Runoff-Accum_Sfc_LatLon0.15_PT153H.grib2 2026-04-14 16:38 134K
20260414T12Z_MSC_GDPS_SensibleHeatNetFlux_Sfc_LatLon0.15_PT153H.grib2 2026-04-14 16:38 440K
20260414T12Z_MSC_GDPS_ShowalterIndex_IsbL-0500_LatLon0.15_PT153H.grib2 2026-04-14 16:38 6.2M
20260414T12Z_MSC_GDPS_Snow-Accum3h_Sfc_LatLon0.15_PT153H.grib2 2026-04-14 16:38 1.1M
20260414T12Z_MSC_GDPS_Snow-Accum_Sfc_LatLon0.15_PT153H.grib2 2026-04-14 16:38 2.0M
20260414T12Z_MSC_GDPS_SnowDepth_Sfc_LatLon0.15_PT153H.grib2 2026-04-14 16:38 1.8M
20260414T12Z_MSC_GDPS_SoilTemp_DBS-0to10cm_LatLon0.15_PT153H.grib2 2026-04-14 16:38 511K
20260414T12Z_MSC_GDPS_SoilTemp_Sfc_LatLon0.15_PT153H.grib2 2026-04-14 16:38 581K
20260414T12Z_MSC_GDPS_SoilVolumetricWaterContent_DBS-0to10cm_LatLon0.15_PT153H.grib2 2026-04-14 16:38 554K
20260414T12Z_MSC_GDPS_SoilVolumetricWaterContent_DBS-0to1cm_LatLon0.15_PT153H.grib2 2026-04-14 16:38 651K
20260414T12Z_MSC_GDPS_SpecificHumidity_AGL-120m_LatLon0.15_PT153H.grib2 2026-04-14 16:38 1.1M
20260414T12Z_MSC_GDPS_SpecificHumidity_AGL-2m_LatLon0.15_PT153H.grib2 2026-04-14 16:38 1.2M
20260414T12Z_MSC_GDPS_SpecificHumidity_AGL-40m_LatLon0.15_PT153H.grib2 2026-04-14 16:38 1.1M
20260414T12Z_MSC_GDPS_SpecificHumidity_AGL-80m_LatLon0.15_PT153H.grib2 2026-04-14 16:38 1.1M
20260414T12Z_MSC_GDPS_SpecificHumidity_IsbL-0001_LatLon0.15_PT153H.grib2 2026-04-14 16:38 1.1M
20260414T12Z_MSC_GDPS_SpecificHumidity_IsbL-0005_LatLon0.15_PT153H.grib2 2026-04-14 16:38 1.0M
20260414T12Z_MSC_GDPS_SpecificHumidity_IsbL-0010_LatLon0.15_PT153H.grib2 2026-04-14 16:38 1.2M
20260414T12Z_MSC_GDPS_SpecificHumidity_IsbL-0020_LatLon0.15_PT153H.grib2 2026-04-14 16:38 1.2M
20260414T12Z_MSC_GDPS_SpecificHumidity_IsbL-0030_LatLon0.15_PT153H.grib2 2026-04-14 16:38 1.5M
20260414T12Z_MSC_GDPS_SpecificHumidity_IsbL-0050_LatLon0.15_PT153H.grib2 2026-04-14 16:38 1.2M
20260414T12Z_MSC_GDPS_SpecificHumidity_IsbL-0100_LatLon0.15_PT153H.grib2 2026-04-14 16:38 1.3M
20260414T12Z_MSC_GDPS_SpecificHumidity_IsbL-0150_LatLon0.15_PT153H.grib2 2026-04-14 16:38 1.3M
20260414T12Z_MSC_GDPS_SpecificHumidity_IsbL-0175_LatLon0.15_PT153H.grib2 2026-04-14 16:38 1.3M
20260414T12Z_MSC_GDPS_SpecificHumidity_IsbL-0200_LatLon0.15_PT153H.grib2 2026-04-14 16:38 1.3M
20260414T12Z_MSC_GDPS_SpecificHumidity_IsbL-0225_LatLon0.15_PT153H.grib2 2026-04-14 16:38 1.3M
20260414T12Z_MSC_GDPS_SpecificHumidity_IsbL-0250_LatLon0.15_PT153H.grib2 2026-04-14 16:38 1.5M
20260414T12Z_MSC_GDPS_SpecificHumidity_IsbL-0275_LatLon0.15_PT153H.grib2 2026-04-14 16:38 1.3M
20260414T12Z_MSC_GDPS_SpecificHumidity_IsbL-0300_LatLon0.15_PT153H.grib2 2026-04-14 16:38 1.2M
20260414T12Z_MSC_GDPS_SpecificHumidity_IsbL-0350_LatLon0.15_PT153H.grib2 2026-04-14 16:38 1.2M
20260414T12Z_MSC_GDPS_SpecificHumidity_IsbL-0400_LatLon0.15_PT153H.grib2 2026-04-14 16:38 1.5M
20260414T12Z_MSC_GDPS_SpecificHumidity_IsbL-0450_LatLon0.15_PT153H.grib2 2026-04-14 16:38 1.3M
20260414T12Z_MSC_GDPS_SpecificHumidity_IsbL-0500_LatLon0.15_PT153H.grib2 2026-04-14 16:38 1.4M
20260414T12Z_MSC_GDPS_SpecificHumidity_IsbL-0550_LatLon0.15_PT153H.grib2 2026-04-14 16:38 1.6M
20260414T12Z_MSC_GDPS_SpecificHumidity_IsbL-0600_LatLon0.15_PT153H.grib2 2026-04-14 16:38 1.7M
20260414T12Z_MSC_GDPS_SpecificHumidity_IsbL-0650_LatLon0.15_PT153H.grib2 2026-04-14 16:38 1.5M
20260414T12Z_MSC_GDPS_SpecificHumidity_IsbL-0700_LatLon0.15_PT153H.grib2 2026-04-14 16:38 1.6M
20260414T12Z_MSC_GDPS_SpecificHumidity_IsbL-0750_LatLon0.15_PT153H.grib2 2026-04-14 16:38 1.7M
20260414T12Z_MSC_GDPS_SpecificHumidity_IsbL-0800_LatLon0.15_PT153H.grib2 2026-04-14 16:38 1.8M
20260414T12Z_MSC_GDPS_SpecificHumidity_IsbL-0850_LatLon0.15_PT153H.grib2 2026-04-14 16:38 1.9M
20260414T12Z_MSC_GDPS_SpecificHumidity_IsbL-0875_LatLon0.15_PT153H.grib2 2026-04-14 16:38 1.9M
20260414T12Z_MSC_GDPS_SpecificHumidity_IsbL-0900_LatLon0.15_PT153H.grib2 2026-04-14 16:38 1.9M
20260414T12Z_MSC_GDPS_SpecificHumidity_IsbL-0925_LatLon0.15_PT153H.grib2 2026-04-14 16:38 1.6M
20260414T12Z_MSC_GDPS_SpecificHumidity_IsbL-0950_LatLon0.15_PT153H.grib2 2026-04-14 16:38 1.5M
20260414T12Z_MSC_GDPS_SpecificHumidity_IsbL-0970_LatLon0.15_PT153H.grib2 2026-04-14 16:38 1.5M
20260414T12Z_MSC_GDPS_SpecificHumidity_IsbL-0985_LatLon0.15_PT153H.grib2 2026-04-14 16:38 1.5M
20260414T12Z_MSC_GDPS_SpecificHumidity_IsbL-1000_LatLon0.15_PT153H.grib2 2026-04-14 16:38 1.5M
20260414T12Z_MSC_GDPS_SpecificHumidity_IsbL-1015_LatLon0.15_PT153H.grib2 2026-04-14 16:38 1.4M
20260414T12Z_MSC_GDPS_SpecificHumidity_Sfc_LatLon0.15_PT153H.grib2 2026-04-14 16:38 660K
20260414T12Z_MSC_GDPS_Thickness_IsbL-0850to0700_LatLon0.15_PT153H.grib2 2026-04-14 16:38 469K
20260414T12Z_MSC_GDPS_Thickness_IsbL-1000to0500_LatLon0.15_PT153H.grib2 2026-04-14 16:38 375K
20260414T12Z_MSC_GDPS_Thickness_IsbL-1000to0850_LatLon0.15_PT153H.grib2 2026-04-14 16:38 492K
20260414T12Z_MSC_GDPS_TotalCloudCover_Sfc_LatLon0.15_PT153H.grib2 2026-04-14 16:38 814K
20260414T12Z_MSC_GDPS_TotalTotalsIndex_Sfc_LatLon0.15_PT153H.grib2 2026-04-14 16:38 6.2M
20260414T12Z_MSC_GDPS_UVIndex-ClearSky_Sfc_LatLon0.15_PT153H.grib2 2026-04-14 16:56 1.0M
20260414T12Z_MSC_GDPS_UVIndex_Sfc_LatLon0.15_PT153H.grib2 2026-04-14 16:56 1.5M
20260414T12Z_MSC_GDPS_UpwardLongwaveRadiationFlux_NTAtm_LatLon0.15_PT153H.grib2 2026-04-14 16:38 838K
20260414T12Z_MSC_GDPS_VerticalVelocity_IsbL-0500_LatLon0.15_PT153H.grib2 2026-04-14 16:38 1.0M
20260414T12Z_MSC_GDPS_VerticalVelocity_IsbL-0700_LatLon0.15_PT153H.grib2 2026-04-14 16:38 1.1M
20260414T12Z_MSC_GDPS_VerticalVelocity_IsbL-0850_LatLon0.15_PT153H.grib2 2026-04-14 16:38 1.6M
20260414T12Z_MSC_GDPS_WindChill_Sfc_LatLon0.15_PT153H.grib2 2026-04-14 16:38 5.3M
20260414T12Z_MSC_GDPS_WindDir_AGL-10m_LatLon0.15_PT153H.grib2 2026-04-14 16:38 1.4M
20260414T12Z_MSC_GDPS_WindDir_AGL-120m_LatLon0.15_PT153H.grib2 2026-04-14 16:38 1.4M
20260414T12Z_MSC_GDPS_WindDir_AGL-40m_LatLon0.15_PT153H.grib2 2026-04-14 16:38 1.4M
20260414T12Z_MSC_GDPS_WindDir_AGL-80m_LatLon0.15_PT153H.grib2 2026-04-14 16:38 1.4M
20260414T12Z_MSC_GDPS_WindDir_IsbL-0001_LatLon0.15_PT153H.grib2 2026-04-14 16:38 643K
20260414T12Z_MSC_GDPS_WindDir_IsbL-0005_LatLon0.15_PT153H.grib2 2026-04-14 16:38 790K
20260414T12Z_MSC_GDPS_WindDir_IsbL-0010_LatLon0.15_PT153H.grib2 2026-04-14 16:38 866K
20260414T12Z_MSC_GDPS_WindDir_IsbL-0020_LatLon0.15_PT153H.grib2 2026-04-14 16:38 934K
20260414T12Z_MSC_GDPS_WindDir_IsbL-0030_LatLon0.15_PT153H.grib2 2026-04-14 16:38 901K
20260414T12Z_MSC_GDPS_WindDir_IsbL-0050_LatLon0.15_PT153H.grib2 2026-04-14 16:38 954K
20260414T12Z_MSC_GDPS_WindDir_IsbL-0100_LatLon0.15_PT153H.grib2 2026-04-14 16:38 1.0M
20260414T12Z_MSC_GDPS_WindDir_IsbL-0150_LatLon0.15_PT153H.grib2 2026-04-14 16:38 1.0M
20260414T12Z_MSC_GDPS_WindDir_IsbL-0175_LatLon0.15_PT153H.grib2 2026-04-14 16:38 1.1M
20260414T12Z_MSC_GDPS_WindDir_IsbL-0200_LatLon0.15_PT153H.grib2 2026-04-14 16:38 1.1M
20260414T12Z_MSC_GDPS_WindDir_IsbL-0225_LatLon0.15_PT153H.grib2 2026-04-14 16:38 1.1M
20260414T12Z_MSC_GDPS_WindDir_IsbL-0250_LatLon0.15_PT153H.grib2 2026-04-14 16:38 1.1M
20260414T12Z_MSC_GDPS_WindDir_IsbL-0275_LatLon0.15_PT153H.grib2 2026-04-14 16:38 1.2M
20260414T12Z_MSC_GDPS_WindDir_IsbL-0300_LatLon0.15_PT153H.grib2 2026-04-14 16:38 1.2M
20260414T12Z_MSC_GDPS_WindDir_IsbL-0350_LatLon0.15_PT153H.grib2 2026-04-14 16:38 1.2M
20260414T12Z_MSC_GDPS_WindDir_IsbL-0400_LatLon0.15_PT153H.grib2 2026-04-14 16:38 1.3M
20260414T12Z_MSC_GDPS_WindDir_IsbL-0450_LatLon0.15_PT153H.grib2 2026-04-14 16:38 1.3M
20260414T12Z_MSC_GDPS_WindDir_IsbL-0500_LatLon0.15_PT153H.grib2 2026-04-14 16:38 1.4M
20260414T12Z_MSC_GDPS_WindDir_IsbL-0550_LatLon0.15_PT153H.grib2 2026-04-14 16:38 1.4M
20260414T12Z_MSC_GDPS_WindDir_IsbL-0600_LatLon0.15_PT153H.grib2 2026-04-14 16:38 1.5M
20260414T12Z_MSC_GDPS_WindDir_IsbL-0650_LatLon0.15_PT153H.grib2 2026-04-14 16:38 1.5M
20260414T12Z_MSC_GDPS_WindDir_IsbL-0700_LatLon0.15_PT153H.grib2 2026-04-14 16:38 1.6M
20260414T12Z_MSC_GDPS_WindDir_IsbL-0750_LatLon0.15_PT153H.grib2 2026-04-14 16:38 1.7M
20260414T12Z_MSC_GDPS_WindDir_IsbL-0800_LatLon0.15_PT153H.grib2 2026-04-14 16:38 1.9M
20260414T12Z_MSC_GDPS_WindDir_IsbL-0850_LatLon0.15_PT153H.grib2 2026-04-14 16:38 2.0M
20260414T12Z_MSC_GDPS_WindDir_IsbL-0875_LatLon0.15_PT153H.grib2 2026-04-14 16:38 2.0M
20260414T12Z_MSC_GDPS_WindDir_IsbL-0900_LatLon0.15_PT153H.grib2 2026-04-14 16:38 2.0M
20260414T12Z_MSC_GDPS_WindDir_IsbL-0925_LatLon0.15_PT153H.grib2 2026-04-14 16:38 2.0M
20260414T12Z_MSC_GDPS_WindDir_IsbL-0950_LatLon0.15_PT153H.grib2 2026-04-14 16:38 2.0M
20260414T12Z_MSC_GDPS_WindDir_IsbL-0970_LatLon0.15_PT153H.grib2 2026-04-14 16:38 2.0M
20260414T12Z_MSC_GDPS_WindDir_IsbL-0985_LatLon0.15_PT153H.grib2 2026-04-14 16:38 2.1M
20260414T12Z_MSC_GDPS_WindDir_IsbL-1000_LatLon0.15_PT153H.grib2 2026-04-14 16:38 2.1M
20260414T12Z_MSC_GDPS_WindDir_IsbL-1015_LatLon0.15_PT153H.grib2 2026-04-14 16:38 2.1M
20260414T12Z_MSC_GDPS_WindGust-Max_AGL-10m_LatLon0.15_PT153H.grib2 2026-04-14 16:38 2.3M
20260414T12Z_MSC_GDPS_WindGust-Min_AGL-10m_LatLon0.15_PT153H.grib2 2026-04-14 16:38 2.2M
20260414T12Z_MSC_GDPS_WindGust_AGL-10m_LatLon0.15_PT153H.grib2 2026-04-14 16:38 2.2M
20260414T12Z_MSC_GDPS_WindSpeed_AGL-10m_LatLon0.15_PT153H.grib2 2026-04-14 16:38 1.1M
20260414T12Z_MSC_GDPS_WindSpeed_AGL-120m_LatLon0.15_PT153H.grib2 2026-04-14 16:38 1.2M
20260414T12Z_MSC_GDPS_WindSpeed_AGL-40m_LatLon0.15_PT153H.grib2 2026-04-14 16:38 1.2M
20260414T12Z_MSC_GDPS_WindSpeed_AGL-80m_LatLon0.15_PT153H.grib2 2026-04-14 16:38 1.2M
20260414T12Z_MSC_GDPS_WindSpeed_IsbL-0001_LatLon0.15_PT153H.grib2 2026-04-14 16:38 632K
20260414T12Z_MSC_GDPS_WindSpeed_IsbL-0005_LatLon0.15_PT153H.grib2 2026-04-14 16:38 612K
20260414T12Z_MSC_GDPS_WindSpeed_IsbL-0010_LatLon0.15_PT153H.grib2 2026-04-14 16:38 625K
20260414T12Z_MSC_GDPS_WindSpeed_IsbL-0020_LatLon0.15_PT153H.grib2 2026-04-14 16:38 665K
20260414T12Z_MSC_GDPS_WindSpeed_IsbL-0030_LatLon0.15_PT153H.grib2 2026-04-14 16:38 856K
20260414T12Z_MSC_GDPS_WindSpeed_IsbL-0050_LatLon0.15_PT153H.grib2 2026-04-14 16:38 1.0M
20260414T12Z_MSC_GDPS_WindSpeed_IsbL-0100_LatLon0.15_PT153H.grib2 2026-04-14 16:38 1.1M
20260414T12Z_MSC_GDPS_WindSpeed_IsbL-0150_LatLon0.15_PT153H.grib2 2026-04-14 16:38 1.0M
20260414T12Z_MSC_GDPS_WindSpeed_IsbL-0175_LatLon0.15_PT153H.grib2 2026-04-14 16:38 1.0M
20260414T12Z_MSC_GDPS_WindSpeed_IsbL-0200_LatLon0.15_PT153H.grib2 2026-04-14 16:38 1.1M
20260414T12Z_MSC_GDPS_WindSpeed_IsbL-0225_LatLon0.15_PT153H.grib2 2026-04-14 16:38 1.1M
20260414T12Z_MSC_GDPS_WindSpeed_IsbL-0250_LatLon0.15_PT153H.grib2 2026-04-14 16:38 1.1M
20260414T12Z_MSC_GDPS_WindSpeed_IsbL-0275_LatLon0.15_PT153H.grib2 2026-04-14 16:38 1.1M
20260414T12Z_MSC_GDPS_WindSpeed_IsbL-0300_LatLon0.15_PT153H.grib2 2026-04-14 16:38 1.1M
20260414T12Z_MSC_GDPS_WindSpeed_IsbL-0350_LatLon0.15_PT153H.grib2 2026-04-14 16:38 1.1M
20260414T12Z_MSC_GDPS_WindSpeed_IsbL-0400_LatLon0.15_PT153H.grib2 2026-04-14 16:38 1.1M
20260414T12Z_MSC_GDPS_WindSpeed_IsbL-0450_LatLon0.15_PT153H.grib2 2026-04-14 16:38 1.1M
20260414T12Z_MSC_GDPS_WindSpeed_IsbL-0500_LatLon0.15_PT153H.grib2 2026-04-14 16:38 1.1M
20260414T12Z_MSC_GDPS_WindSpeed_IsbL-0550_LatLon0.15_PT153H.grib2 2026-04-14 16:38 1.1M
20260414T12Z_MSC_GDPS_WindSpeed_IsbL-0600_LatLon0.15_PT153H.grib2 2026-04-14 16:38 1.1M
20260414T12Z_MSC_GDPS_WindSpeed_IsbL-0650_LatLon0.15_PT153H.grib2 2026-04-14 16:38 1.4M
20260414T12Z_MSC_GDPS_WindSpeed_IsbL-0700_LatLon0.15_PT153H.grib2 2026-04-14 16:38 1.5M
20260414T12Z_MSC_GDPS_WindSpeed_IsbL-0750_LatLon0.15_PT153H.grib2 2026-04-14 16:38 1.6M
20260414T12Z_MSC_GDPS_WindSpeed_IsbL-0800_LatLon0.15_PT153H.grib2 2026-04-14 16:38 1.8M
20260414T12Z_MSC_GDPS_WindSpeed_IsbL-0850_LatLon0.15_PT153H.grib2 2026-04-14 16:38 1.9M
20260414T12Z_MSC_GDPS_WindSpeed_IsbL-0875_LatLon0.15_PT153H.grib2 2026-04-14 16:38 1.9M
20260414T12Z_MSC_GDPS_WindSpeed_IsbL-0900_LatLon0.15_PT153H.grib2 2026-04-14 16:38 1.9M
20260414T12Z_MSC_GDPS_WindSpeed_IsbL-0925_LatLon0.15_PT153H.grib2 2026-04-14 16:38 1.9M
20260414T12Z_MSC_GDPS_WindSpeed_IsbL-0950_LatLon0.15_PT153H.grib2 2026-04-14 16:38 1.9M
20260414T12Z_MSC_GDPS_WindSpeed_IsbL-0970_LatLon0.15_PT153H.grib2 2026-04-14 16:38 1.9M
20260414T12Z_MSC_GDPS_WindSpeed_IsbL-0985_LatLon0.15_PT153H.grib2 2026-04-14 16:38 1.8M
20260414T12Z_MSC_GDPS_WindSpeed_IsbL-1000_LatLon0.15_PT153H.grib2 2026-04-14 16:38 1.9M
20260414T12Z_MSC_GDPS_WindSpeed_IsbL-1015_LatLon0.15_PT153H.grib2 2026-04-14 16:38 1.8M
20260414T12Z_MSC_GDPS_WindU_AGL-10m_LatLon0.15_PT153H.grib2 2026-04-14 16:38 1.3M
20260414T12Z_MSC_GDPS_WindU_AGL-120m_LatLon0.15_PT153H.grib2 2026-04-14 16:38 1.0M
20260414T12Z_MSC_GDPS_WindU_AGL-40m_LatLon0.15_PT153H.grib2 2026-04-14 16:38 1.0M
20260414T12Z_MSC_GDPS_WindU_AGL-80m_LatLon0.15_PT153H.grib2 2026-04-14 16:38 1.0M
20260414T12Z_MSC_GDPS_WindU_IsbL-0001_LatLon0.15_PT153H.grib2 2026-04-14 16:38 638K
20260414T12Z_MSC_GDPS_WindU_IsbL-0005_LatLon0.15_PT153H.grib2 2026-04-14 16:38 691K
20260414T12Z_MSC_GDPS_WindU_IsbL-0010_LatLon0.15_PT153H.grib2 2026-04-14 16:38 700K
20260414T12Z_MSC_GDPS_WindU_IsbL-0020_LatLon0.15_PT153H.grib2 2026-04-14 16:38 733K
20260414T12Z_MSC_GDPS_WindU_IsbL-0030_LatLon0.15_PT153H.grib2 2026-04-14 16:38 735K
20260414T12Z_MSC_GDPS_WindU_IsbL-0050_LatLon0.15_PT153H.grib2 2026-04-14 16:38 703K
20260414T12Z_MSC_GDPS_WindU_IsbL-0100_LatLon0.15_PT153H.grib2 2026-04-14 16:38 928K
20260414T12Z_MSC_GDPS_WindU_IsbL-0150_LatLon0.15_PT153H.grib2 2026-04-14 16:38 1.0M
20260414T12Z_MSC_GDPS_WindU_IsbL-0175_LatLon0.15_PT153H.grib2 2026-04-14 16:38 1.0M
20260414T12Z_MSC_GDPS_WindU_IsbL-0200_LatLon0.15_PT153H.grib2 2026-04-14 16:38 1.1M
20260414T12Z_MSC_GDPS_WindU_IsbL-0225_LatLon0.15_PT153H.grib2 2026-04-14 16:38 853K
20260414T12Z_MSC_GDPS_WindU_IsbL-0250_LatLon0.15_PT153H.grib2 2026-04-14 16:38 854K
20260414T12Z_MSC_GDPS_WindU_IsbL-0275_LatLon0.15_PT153H.grib2 2026-04-14 16:38 881K
20260414T12Z_MSC_GDPS_WindU_IsbL-0300_LatLon0.15_PT153H.grib2 2026-04-14 16:38 870K
20260414T12Z_MSC_GDPS_WindU_IsbL-0350_LatLon0.15_PT153H.grib2 2026-04-14 16:38 884K
20260414T12Z_MSC_GDPS_WindU_IsbL-0400_LatLon0.15_PT153H.grib2 2026-04-14 16:38 885K
20260414T12Z_MSC_GDPS_WindU_IsbL-0450_LatLon0.15_PT153H.grib2 2026-04-14 16:38 1.1M
20260414T12Z_MSC_GDPS_WindU_IsbL-0500_LatLon0.15_PT153H.grib2 2026-04-14 16:38 1.1M
20260414T12Z_MSC_GDPS_WindU_IsbL-0550_LatLon0.15_PT153H.grib2 2026-04-14 16:38 1.1M
20260414T12Z_MSC_GDPS_WindU_IsbL-0600_LatLon0.15_PT153H.grib2 2026-04-14 16:38 1.1M
20260414T12Z_MSC_GDPS_WindU_IsbL-0650_LatLon0.15_PT153H.grib2 2026-04-14 16:38 1.2M
20260414T12Z_MSC_GDPS_WindU_IsbL-0700_LatLon0.15_PT153H.grib2 2026-04-14 16:38 1.2M
20260414T12Z_MSC_GDPS_WindU_IsbL-0750_LatLon0.15_PT153H.grib2 2026-04-14 16:38 1.3M
20260414T12Z_MSC_GDPS_WindU_IsbL-0800_LatLon0.15_PT153H.grib2 2026-04-14 16:38 1.4M
20260414T12Z_MSC_GDPS_WindU_IsbL-0850_LatLon0.15_PT153H.grib2 2026-04-14 16:38 1.4M
20260414T12Z_MSC_GDPS_WindU_IsbL-0875_LatLon0.15_PT153H.grib2 2026-04-14 16:38 1.4M
20260414T12Z_MSC_GDPS_WindU_IsbL-0900_LatLon0.15_PT153H.grib2 2026-04-14 16:38 1.5M
20260414T12Z_MSC_GDPS_WindU_IsbL-0925_LatLon0.15_PT153H.grib2 2026-04-14 16:38 1.5M
20260414T12Z_MSC_GDPS_WindU_IsbL-0950_LatLon0.15_PT153H.grib2 2026-04-14 16:38 1.4M
20260414T12Z_MSC_GDPS_WindU_IsbL-0970_LatLon0.15_PT153H.grib2 2026-04-14 16:38 1.4M
20260414T12Z_MSC_GDPS_WindU_IsbL-0985_LatLon0.15_PT153H.grib2 2026-04-14 16:38 1.4M
20260414T12Z_MSC_GDPS_WindU_IsbL-1000_LatLon0.15_PT153H.grib2 2026-04-14 16:38 1.4M
20260414T12Z_MSC_GDPS_WindU_IsbL-1015_LatLon0.15_PT153H.grib2 2026-04-14 16:38 1.3M
20260414T12Z_MSC_GDPS_WindV_AGL-10m_LatLon0.15_PT153H.grib2 2026-04-14 16:38 1.6M
20260414T12Z_MSC_GDPS_WindV_AGL-120m_LatLon0.15_PT153H.grib2 2026-04-14 16:38 1.0M
20260414T12Z_MSC_GDPS_WindV_AGL-40m_LatLon0.15_PT153H.grib2 2026-04-14 16:38 1.2M
20260414T12Z_MSC_GDPS_WindV_AGL-80m_LatLon0.15_PT153H.grib2 2026-04-14 16:38 1.0M
20260414T12Z_MSC_GDPS_WindV_IsbL-0001_LatLon0.15_PT153H.grib2 2026-04-14 16:38 695K
20260414T12Z_MSC_GDPS_WindV_IsbL-0005_LatLon0.15_PT153H.grib2 2026-04-14 16:38 781K
20260414T12Z_MSC_GDPS_WindV_IsbL-0010_LatLon0.15_PT153H.grib2 2026-04-14 16:38 803K
20260414T12Z_MSC_GDPS_WindV_IsbL-0020_LatLon0.15_PT153H.grib2 2026-04-14 16:38 854K
20260414T12Z_MSC_GDPS_WindV_IsbL-0030_LatLon0.15_PT153H.grib2 2026-04-14 16:38 855K
20260414T12Z_MSC_GDPS_WindV_IsbL-0050_LatLon0.15_PT153H.grib2 2026-04-14 16:38 908K
20260414T12Z_MSC_GDPS_WindV_IsbL-0100_LatLon0.15_PT153H.grib2 2026-04-14 16:38 858K
20260414T12Z_MSC_GDPS_WindV_IsbL-0150_LatLon0.15_PT153H.grib2 2026-04-14 16:38 1.0M
20260414T12Z_MSC_GDPS_WindV_IsbL-0175_LatLon0.15_PT153H.grib2 2026-04-14 16:38 1.0M
20260414T12Z_MSC_GDPS_WindV_IsbL-0200_LatLon0.15_PT153H.grib2 2026-04-14 16:38 848K
20260414T12Z_MSC_GDPS_WindV_IsbL-0225_LatLon0.15_PT153H.grib2 2026-04-14 16:38 852K
20260414T12Z_MSC_GDPS_WindV_IsbL-0250_LatLon0.15_PT153H.grib2 2026-04-14 16:38 910K
20260414T12Z_MSC_GDPS_WindV_IsbL-0275_LatLon0.15_PT153H.grib2 2026-04-14 16:38 935K
20260414T12Z_MSC_GDPS_WindV_IsbL-0300_LatLon0.15_PT153H.grib2 2026-04-14 16:38 924K
20260414T12Z_MSC_GDPS_WindV_IsbL-0350_LatLon0.15_PT153H.grib2 2026-04-14 16:38 934K
20260414T12Z_MSC_GDPS_WindV_IsbL-0400_LatLon0.15_PT153H.grib2 2026-04-14 16:38 935K
20260414T12Z_MSC_GDPS_WindV_IsbL-0450_LatLon0.15_PT153H.grib2 2026-04-14 16:38 879K
20260414T12Z_MSC_GDPS_WindV_IsbL-0500_LatLon0.15_PT153H.grib2 2026-04-14 16:38 882K
20260414T12Z_MSC_GDPS_WindV_IsbL-0550_LatLon0.15_PT153H.grib2 2026-04-14 16:38 1.1M
20260414T12Z_MSC_GDPS_WindV_IsbL-0600_LatLon0.15_PT153H.grib2 2026-04-14 16:38 1.1M
20260414T12Z_MSC_GDPS_WindV_IsbL-0650_LatLon0.15_PT153H.grib2 2026-04-14 16:38 1.2M
20260414T12Z_MSC_GDPS_WindV_IsbL-0700_LatLon0.15_PT153H.grib2 2026-04-14 16:38 1.2M
20260414T12Z_MSC_GDPS_WindV_IsbL-0750_LatLon0.15_PT153H.grib2 2026-04-14 16:38 1.3M
20260414T12Z_MSC_GDPS_WindV_IsbL-0800_LatLon0.15_PT153H.grib2 2026-04-14 16:38 1.3M
20260414T12Z_MSC_GDPS_WindV_IsbL-0850_LatLon0.15_PT153H.grib2 2026-04-14 16:38 1.4M
20260414T12Z_MSC_GDPS_WindV_IsbL-0875_LatLon0.15_PT153H.grib2 2026-04-14 16:38 1.4M
20260414T12Z_MSC_GDPS_WindV_IsbL-0900_LatLon0.15_PT153H.grib2 2026-04-14 16:38 1.5M
20260414T12Z_MSC_GDPS_WindV_IsbL-0925_LatLon0.15_PT153H.grib2 2026-04-14 16:38 1.5M
20260414T12Z_MSC_GDPS_WindV_IsbL-0950_LatLon0.15_PT153H.grib2 2026-04-14 16:38 1.4M
20260414T12Z_MSC_GDPS_WindV_IsbL-0970_LatLon0.15_PT153H.grib2 2026-04-14 16:38 1.4M
20260414T12Z_MSC_GDPS_WindV_IsbL-0985_LatLon0.15_PT153H.grib2 2026-04-14 16:38 1.4M
20260414T12Z_MSC_GDPS_WindV_IsbL-1000_LatLon0.15_PT153H.grib2 2026-04-14 16:38 1.7M
20260414T12Z_MSC_GDPS_WindV_IsbL-1015_LatLon0.15_PT153H.grib2 2026-04-14 16:38 1.6M